Location: Ariel
(45.9570°N, 122.5700°W)
Time: 18:06:39
(UTC-07:00)

Altair - Pass Details

Date: 29 July 2019
Orbit: 1501 x 1683 km, 47.2° (Epoch: 22 August)

Event Time Altitude Azimuth Distance (km) Brightness Sun altitude
Rises 12:02:40 0° 250° (WSW) 4,672 10.0 58.7°
Reaches altitude 10° 12:05:42 10° 250° (WSW) 3,676 9.5 59.0°
Maximum altitude 12:14:57 86° 163° (SSE) 1,509 8.9 59.9°
Drops below altitude 10° 12:24:10 10° 76° (ENE) 3,665 9.7 60.6°
Sets 12:27:12 0° 76° (ENE) 4,658 10.1 60.9°
